Location: Bremen
(53.0793°N, 8.8017°E)
Time: 02:36:57
(UTC+01:00)

Transit 2A - Pass Details

Date: 04 December 2021
Orbit: 591 x 967 km, 66.7° (Epoch: 17 January)

Event Time Altitude Azimuth Distance (km) Brightness Sun altitude
Exits shadow 06:38:16 12° 325° (NW) 2,528 8.2 -14.3°
Maximum altitude 06:43:25 33° 26° (NNE) 1,575 7.7 -13.5°
Drops below altitude 10° 06:49:06 10° 89° (E) 2,691 10.0 -12.7°
Sets 06:51:54 0° 99° (E) 3,608 11.3 -12.3°
